SCP
0 0 0 0 0 0 0 0 0 0 0 0 0 0 0 0 0 0 0 0 0 0 0 0 0 0 0 0 0 0 0 0 0 -0 -0 0 0 0 0 0 0 0 0
0 0 0 0 0 0 0 0 0 0 0 0 0 0 0 0 0 0 0 0 0 0 0 0 0 0 0 0 0 0 0 0 0 0 0 0 -0 -0 -0 -0 0 0 0
0 0 0 0 0 0 0 0 0 0 0 0 0 0 0 0 0 0 0 0 0 0 0 0 0 0 0 0 0 0 0 0 0 0 0 0 0 0 0 0 -0 -0 0
0 0 0 0 0 0 0 0 0 0 0 0 0 0 0 0 0 0 0 0 0 0 0 0 0 0 0 0 0 0 0 0 0 0 0 0 0 0 0 0 -0 -0 -0
0 0 0 0 0 0 0 0 0 0 0 0 0 0 0 0 0 0 0 0 0 0 0 0 0 0 0 0 0 0 0 0 0 0 0 0 0 0 0 0 -0 -0 -0
0 0 0 0 0 0 0 0 0 0 0 0 0 0 0 0 0 0 0 0 0 0 0 0 0 0 0 0 0 0 0 0 0 0 0 0 0 0 0 0 0 -0 0
0 0 0 0 0 0 0 0 0 0 0 0 0 0 0 0 0 0 0 0 0 0 0 0 0 0 0 0 0 0 0 0 0 0 0 0 0 0 0 0 0 0 0
0 0 0 0 0 0 0 0 0 0 0 0 0 0 0 0 0 0 0 0 0 0 0 0 0 0 0 0 0 0 0 0 0 0 0 0 0 0 0 0 0 0 0
0 0 0 0 0 0 0 0 0 0 0 0 0 0 0 0 0 0 0 0 0 0 0 0 0 0 0 0 0 0 0 0 0 0 0 0 0 0 0 0 0 0 0
0 0 0 0 0 0 0 0 0 0 0 0 0 0 0 0 0 0 0 0 0 0 0 0 0 0 0 0 0 0 0 0 0 0 0 0 0 0 0 0 0 0 0
0 0 0 0 0 0 0 0 0 0 0 0 0 0 0 0 0 0 0 0 0 0 0 0 0 0 0 0 0 0 0 0 0 0 0 0 0 0 0 0 0 0 0
0 0 0 0 0 0 0 0 0 0 0 0 0 0 0 0 0 0 0 0 0 0 0 0 0 0 0 0 0 0 0 0 0 0 0 0 0 0 0 0 0 0 0
0 0 0 0 0 0 0 0 0 0 0 0 0 0 0 0 0 0 0 0 0 0 0 0 0 0 0 0 0 0 0 0 0 0 0 0 0 0 0 0 0 0 0
0 0 0 0 0 0 0 0 0 0 0 0 0 0 0 0 0 0 0 0 0 0 0 0 0 0 0 0 0 0 0 0 0 0 0 0 0 0 0 0 0 0 0
0 0 0 0 0 0 0 0 0 0 0 0 0 0 0 0 0 0 0 0 0 0 0 0 0 0 0 0 0 0 0 0 0 0 0 0 0 0 0 0 0 0 0
0 0 0 0 0 0 0 0 0 0 0 0 0 0 0 0 0 0 0 0 0 0 0 0 0 0 0 0 0 0 0 0 0 0 0 0 0 0 0 0 0 0 0
0 0 0 0 0 0 0 0 0 0 0 0 0 0 0 0 0 0 0 0 0 0 0 0 0 0 0 0 0 0 0 0 0 0 0 0 0 0 0 0 0 0 0
0 0 0 0 0 0 0 0 0 0 0 0 0 0 0 0 0 0 0 0 0 0 0 0 0 0 0 0 0 0 0 0 0 0 0 0 0 0 0 0 -0 0 0
0 0 0 0 0 0 0 0 0 0 0 0 0 0 0 0 0 0 0 0 0 0 0 0 0 0 0 0 0 0 0 0 0 0 0 0 0 0 -0 -0 -0 -0 0
0 0 0 0 0 0 0 0 0 0 0 0 0 0 0 0 0 0 0 0 0 0 0 0 0 0 0 0 0 0 0 0 0 0 0 0 0 0 -0 -0 -0 -0 -0
0 0 0 0 0 0 0 0 0 0 0 0 0 0 0 0 0 0 0 0 0 0 0 0 0 0 0 0 0 0 0 0 0 0 0 0 0 0 0 0 0 -0 0
0 0 0 0 0 0 0 0 0 0 0 0 0 0 0 0 0 0 0 0 0 0 0 0 0 0 0 0 0 0 0 0 0 0 0 0 0 0 0 0 0 -0 -0
0 0 0 0 0 0 0 0 0 0 0 0 0 0 0 0 0 0 0 0 0 0 0 0 0 0 0 0 0 0 0 0 0 0 0 0 0 0 0 0 -0 -0 -0
0 0 0 0 0 0 0 0 0 0 0 0 0 0 0 0 0 0 0 0 0 0 0 0 0 0 0 0 0 0 0 0 0 0 0 0 0 0 0 0 -0 -0 0
0 0 0 0 0 0 0 0 0 0 0 0 0 0 0 0 0 0 0 0 0 0 0 0 0 0 0 0 0 0 0 0 0 0 0 0 0 0 0 0 0 0 0
0 0 0 0 0 0 0 0 0 0 0 0 0 0 0 0 0 0 0 0 0 0 0 0 0 0 0 0 0 0 0 0 0 0 0 0 0 0 0 0 0 -0 0
Wind_Speed_500mb
22 18 15 13 10 6 5 5 11 17 19 21 23 25 28 29 25 17 18 17 17 14 9 13 11 15 14 9 11 14 12 16 17 20 21 24 34 38 36 42 43 42 45
17 13 13 13 12 9 4 11 15 17 19 22 23 25 27 21 19 22 20 13 12 8 8 14 14 3 8 9 13 10 14 15 16 19 21 27 25 29 31 33 38 46 53
19 14 17 13 10 11 10 10 15 19 21 22 24 23 19 20 19 16 13 15 10 9 12 17 23 25 23 20 20 20 17 20 22 23 25 19 21 23 27 29 34 38 42
18 16 17 16 16 13 11 12 14 16 19 20 18 19 19 19 18 16 19 15 11 15 8 13 18 23 27 29 28 28 20 22 22 26 27 25 29 28 24 30 35 35 35
24 24 22 19 18 19 17 14 12 14 15 16 17 18 19 16 16 19 15 8 15 7 10 21 26 27 30 31 32 30 22 25 28 28 27 30 29 25 29 35 38 36 38
30 28 25 26 25 24 18 12 11 10 12 14 17 19 21 22 23 18 14 13 16 19 27 25 23 28 32 32 32 28 21 24 26 28 31 33 35 37 40 38 38 39 38
33 32 33 32 30 23 17 13 9 10 11 16 19 24 28 25 21 19 18 20 23 28 30 25 31 30 26 30 28 28 23 24 28 33 35 35 37 39 41 42 42 41 43
36 38 38 37 29 22 18 13 8 5 11 18 18 26 9 20 24 20 26 23 27 31 23 29 31 28 29 28 29 28 30 34 38 37 38 42 44 45 45 45 44 46 46
42 44 43 36 29 24 17 10 7 10 19 32 36 28 10 10 17 26 20 26 21 24 27 28 31 29 30 32 38 42 43 47 49 45 38 39 40 42 44 46 48 50 52
48 50 45 38 33 24 15 10 11 24 33 31 39 30 26 27 13 16 15 18 30 25 27 31 33 33 34 39 44 47 52 58 60 57 52 43 43 44 47 50 52 55 58
53 52 50 46 39 32 22 14 22 38 55 59 35 26 24 24 26 20 28 21 22 23 26 30 29 34 41 44 48 50 56 60 64 66 64 58 53 53 54 57 60 62 65
59 58 55 49 45 37 29 36 45 40 51 38 25 22 23 15 14 16 23 25 25 25 27 28 32 39 42 48 52 58 61 65 69 71 70 69 63 60 60 60 62 64 65
56 65 62 55 47 37 34 31 30 42 38 24 26 27 23 21 21 23 21 25 27 28 26 28 30 37 44 50 55 59 67 68 63 63 64 64 65 61 57 57 57 58 58
58 61 61 55 44 32 33 30 31 36 21 31 27 24 24 24 24 24 22 22 29 31 30 29 29 37 43 48 53 66 65 63 61 61 62 62 61 59 52 52 52 54 54
63 63 61 54 37 52 33 25 25 21 28 30 24 22 23 26 28 26 26 26 27 38 39 34 30 32 43 45 58 59 62 64 62 61 61 61 59 57 54 51 52 53 56
67 68 62 45 51 34 25 29 23 17 35 28 26 25 22 21 24 24 26 31 34 33 45 37 35 37 49 55 53 57 59 61 61 59 60 60 59 57 54 52 57 59 56
69 68 60 55 38 30 31 22 18 31 31 28 28 25 18 15 21 23 29 34 37 39 41 43 40 39 57 50 48 54 56 58 56 60 59 59 58 58 58 57 56 56 58
67 65 62 51 46 34 27 22 22 27 29 32 29 27 24 23 26 30 35 39 42 40 43 46 41 40 41 44 51 53 53 54 55 56 55 52 46 38 39 44 48 50 51
63 61 55 47 39 32 24 16 30 28 33 32 32 35 34 35 36 39 41 42 47 46 47 49 47 40 39 39 42 43 48 50 49 51 48 40 33 38 40 44 45 48 49
59 56 48 38 30 25 17 21 42 23 34 37 37 42 42 44 46 45 45 45 48 48 46 46 42 39 37 35 42 39 43 41 43 45 35 33 38 38 35 36 42 44 44
54 51 46 45 43 31 31 45 28 37 45 50 53 58 58 55 49 48 48 47 48 48 42 38 39 36 36 36 37 37 40 43 42 35 33 38 38 34 31 36 40 42 43
50 50 56 55 53 45 36 43 32 46 50 53 58 58 60 60 59 50 49 47 47 48 47 39 35 35 36 36 33 33 38 41 48 36 43 48 35 35 32 35 41 43 41
54 54 51 55 53 52 53 45 43 46 59 57 57 61 60 59 58 54 50 49 48 50 49 43 40 35 37 36 33 33 35 41 46 48 43 46 36 34 33 39 39 41 28
46 51 62 64 63 62 61 57 34 56 61 63 64 62 60 59 57 55 51 50 48 49 49 45 44 41 41 39 36 32 37 43 45 42 36 45 30 37 39 38 27 30 26
51 56 56 59 66 68 57 36 52 59 59 59 56 56 57 56 54 54 53 49 48 49 47 44 44 43 41 37 33 30 35 41 46 44 33 26 31 44 40 33 23 36 31
35 42 50 55 53 41 43 51 52 54 58 59 55 53 51 52 51 54 56 50 50 46 43 43 44 43 39 37 31 32 33 38 39 38 17 31 33 32 32 20 40 35 33
Wind_Direction_500mb
179 182 177 175 180 203 265 304 310 313 312 311 315 319 320 324 329 333 323 316 309 305 259 276 292 309 323 347 331 346 344 359 4 6 352 333 323 324 324 325 323 324 327
184 191 199 199 212 231 273 299 304 309 313 315 316 317 319 322 322 321 322 337 342 327 273 247 240 242 297 317 329 13 355 353 345 343 337 324 334 340 348 347 341 331 326
199 214 210 207 224 232 256 291 309 310 310 312 315 317 321 320 325 330 331 335 344 335 296 265 257 255 254 269 292 300 316 318 321 322 326 301 319 322 329 332 339 336 335
216 225 217 219 223 238 261 277 289 302 310 312 316 321 321 325 332 332 332 339 341 336 276 267 273 273 275 279 282 291 305 308 307 308 309 301 308 312 318 322 328 331 330
231 220 219 212 220 240 245 267 301 313 316 319 323 323 322 317 315 320 320 311 328 301 299 308 291 280 283 288 291 291 304 305 306 306 300 305 306 303 311 314 319 321 321
223 222 218 214 223 233 245 274 294 313 323 320 329 327 319 307 304 305 296 293 313 310 314 312 299 298 300 305 305 303 314 312 308 303 297 295 296 297 301 306 310 310 311
226 222 217 221 225 237 250 270 303 326 330 341 335 322 311 294 286 284 283 293 308 314 317 310 315 312 309 308 305 305 313 314 311 307 303 300 298 297 297 299 301 301 302
223 220 220 225 232 244 257 276 291 333 340 334 329 321 278 291 271 275 280 280 300 313 305 311 314 309 309 307 306 309 312 315 316 310 301 296 295 291 290 293 294 296 298
220 223 225 230 240 247 263 282 286 317 330 329 318 305 287 275 288 285 269 288 293 304 297 307 312 303 305 308 307 304 304 309 313 311 306 300 295 292 289 289 291 292 293
223 224 230 235 243 253 264 261 288 328 333 333 315 292 288 282 282 288 293 272 299 296 295 303 302 294 299 304 306 304 303 306 311 309 305 304 299 294 289 288 289 291 291
226 230 234 238 242 248 244 253 315 317 323 316 294 289 282 283 285 280 292 292 299 295 297 305 300 294 297 302 304 301 305 308 307 305 302 298 296 292 288 287 286 286 286
232 232 234 238 243 243 245 288 296 319 322 304 288 286 286 279 279 280 287 292 290 290 299 301 303 299 294 300 301 302 304 303 302 300 297 293 292 290 288 286 284 283 284
244 238 240 242 245 247 272 281 298 314 298 282 284 289 292 293 287 291 280 286 288 293 298 296 298 298 296 300 300 303 305 304 304 302 299 297 294 292 292 290 289 286 284
252 247 242 240 236 252 276 279 313 298 274 290 284 285 286 285 286 281 269 283 290 294 295 293 288 303 302 304 297 305 306 306 306 305 302 299 297 295 295 293 290 287 283
249 246 239 233 233 276 265 278 295 268 301 286 273 267 279 270 269 269 272 280 277 294 298 301 289 293 304 302 305 306 306 307 307 306 304 302 299 296 294 292 287 282 281
245 243 235 231 270 244 257 280 253 296 301 272 255 262 276 263 259 265 273 274 278 284 291 300 292 292 304 306 306 306 307 307 307 306 305 303 299 295 291 288 283 284 283
244 242 233 254 244 236 258 243 265 305 277 251 248 260 270 274 274 276 277 278 284 287 285 296 292 295 307 305 306 308 310 309 309 308 307 303 295 288 287 289 290 289 283
247 236 238 239 229 248 236 246 298 282 264 247 249 253 270 281 291 285 281 277 283 282 285 289 294 294 299 305 310 311 312 311 309 309 310 301 297 298 297 295 294 292 287
235 226 231 228 240 230 234 252 293 256 261 258 258 264 273 273 277 289 275 276 280 280 283 285 292 291 299 306 309 311 312 312 312 316 315 299 293 296 295 295 296 297 298
231 225 222 223 216 212 227 280 302 268 259 264 269 272 274 272 273 278 271 280 280 276 280 283 287 291 295 302 308 312 312 313 312 316 305 304 302 298 297 301 303 298 297
230 222 219 224 213 219 227 280 286 271 272 270 270 271 271 271 271 273 267 283 278 274 276 278 283 286 295 300 304 306 308 313 318 315 308 308 306 302 302 311 315 310 297
220 219 213 215 231 231 253 286 273 274 279 278 277 273 274 269 262 265 265 284 277 276 278 274 275 279 291 297 301 305 310 314 316 318 311 309 308 300 300 308 317 306 302
222 215 214 224 233 249 274 278 272 275 282 281 278 276 274 269 262 257 264 283 275 277 279 276 274 278 287 297 295 303 306 307 307 309 310 307 311 299 302 309 322 311 295
219 223 236 254 261 265 281 286 279 282 283 283 280 277 272 268 259 254 260 277 273 278 283 278 276 285 289 291 294 296 303 306 306 308 307 301 307 305 307 316 328 325 290
249 257 259 261 272 277 290 287 291 289 289 287 283 277 267 262 255 251 259 271 271 278 283 275 275 281 284 284 292 292 300 306 308 312 314 306 310 312 311 316 320 319 311
262 265 275 283 286 284 291 296 293 292 294 295 288 279 267 258 254 254 262 267 264 275 280 273 272 278 278 281 284 284 291 297 302 314 302 318 312 325 318 315 322 323 319
Wind_Speed_850mb
22 18 15 13 10 6 5 5 11 17 19 21 23 25 28 29 25 17 18 17 17 14 9 13 11 15 14 9 11 14 12 16 17 20 21 24 34 38 36 42 43 42 45
17 13 13 13 12 9 4 11 15 17 19 22 23 25 27 21 19 22 20 13 12 8 8 14 14 3 8 9 13 10 14 15 16 19 21 27 25 29 31 33 38 46 53
19 14 17 13 10 11 10 10 15 19 21 22 24 23 19 20 19 16 13 15 10 9 12 17 23 25 23 20 20 20 17 20 22 23 25 19 21 23 27 29 34 38 42
18 16 17 16 16 13 11 12 14 16 19 20 18 19 19 19 18 16 19 15 11 15 8 13 18 23 27 29 28 28 20 22 22 26 27 25 29 28 24 30 35 35 35
24 24 22 19 18 19 17 14 12 14 15 16 17 18 19 16 16 19 15 8 15 7 10 21 26 27 30 31 32 30 22 25 28 28 27 30 29 25 29 35 38 36 38
30 28 25 26 25 24 18 12 11 10 12 14 17 19 21 22 23 18 14 13 16 19 27 25 23 28 32 32 32 28 21 24 26 28 31 33 35 37 40 38 38 39 38
33 32 33 32 30 23 17 13 9 10 11 16 19 24 28 25 21 19 18 20 23 28 30 25 31 30 26 30 28 28 23 24 28 33 35 35 37 39 41 42 42 41 43
36 38 38 37 29 22 18 13 8 5 11 18 18 26 9 20 24 20 26 23 27 31 23 29 31 28 29 28 29 28 30 34 38 37 38 42 44 45 45 45 44 46 46
42 44 43 36 29 24 17 10 7 10 19 32 36 28 10 10 17 26 20 26 21 24 27 28 31 29 30 32 38 42 43 47 49 45 38 39 40 42 44 46 48 50 52
48 50 45 38 33 24 15 10 11 24 33 31 39 30 26 27 13 16 15 18 30 25 27 31 33 33 34 39 44 47 52 58 60 57 52 43 43 44 47 50 52 55 58
53 52 50 46 39 32 22 14 22 38 55 59 35 26 24 24 26 20 28 21 22 23 26 30 29 34 41 44 48 50 56 60 64 66 64 58 53 53 54 57 60 62 65
59 58 55 49 45 37 29 36 45 40 51 38 25 22 23 15 14 16 23 25 25 25 27 28 32 39 42 48 52 58 61 65 69 71 70 69 63 60 60 60 62 64 65
56 65 62 55 47 37 34 31 30 42 38 24 26 27 23 21 21 23 21 25 27 28 26 28 30 37 44 50 55 59 67 68 63 63 64 64 65 61 57 57 57 58 58
58 61 61 55 44 32 33 30 31 36 21 31 27 24 24 24 24 24 22 22 29 31 30 29 29 37 43 48 53 66 65 63 61 61 62 62 61 59 52 52 52 54 54
63 63 61 54 37 52 33 25 25 21 28 30 24 22 23 26 28 26 26 26 27 38 39 34 30 32 43 45 58 59 62 64 62 61 61 61 59 57 54 51 52 53 56
67 68 62 45 51 34 25 29 23 17 35 28 26 25 22 21 24 24 26 31 34 33 45 37 35 37 49 55 53 57 59 61 61 59 60 60 59 57 54 52 57 59 56
69 68 60 55 38 30 31 22 18 31 31 28 28 25 18 15 21 23 29 34 37 39 41 43 40 39 57 50 48 54 56 58 56 60 59 59 58 58 58 57 56 56 58
67 65 62 51 46 34 27 22 22 27 29 32 29 27 24 23 26 30 35 39 42 40 43 46 41 40 41 44 51 53 53 54 55 56 55 52 46 38 39 44 48 50 51
63 61 55 47 39 32 24 16 30 28 33 32 32 35 34 35 36 39 41 42 47 46 47 49 47 40 39 39 42 43 48 50 49 51 48 40 33 38 40 44 45 48 49
59 56 48 38 30 25 17 21 42 23 34 37 37 42 42 44 46 45 45 45 48 48 46 46 42 39 37 35 42 39 43 41 43 45 35 33 38 38 35 36 42 44 44
54 51 46 45 43 31 31 45 28 37 45 50 53 58 58 55 49 48 48 47 48 48 42 38 39 36 36 36 37 37 40 43 42 35 33 38 38 34 31 36 40 42 43
50 50 56 55 53 45 36 43 32 46 50 53 58 58 60 60 59 50 49 47 47 48 47 39 35 35 36 36 33 33 38 41 48 36 43 48 35 35 32 35 41 43 41
54 54 51 55 53 52 53 45 43 46 59 57 57 61 60 59 58 54 50 49 48 50 49 43 40 35 37 36 33 33 35 41 46 48 43 46 36 34 33 39 39 41 28
46 51 62 64 63 62 61 57 34 56 61 63 64 62 60 59 57 55 51 50 48 49 49 45 44 41 41 39 36 32 37 43 45 42 36 45 30 37 39 38 27 30 26
51 56 56 59 66 68 57 36 52 59 59 59 56 56 57 56 54 54 53 49 48 49 47 44 44 43 41 37 33 30 35 41 46 44 33 26 31 44 40 33 23 36 31
35 42 50 55 53 41 43 51 52 54 58 59 55 53 51 52 51 54 56 50 50 46 43 43 44 43 39 37 31 32 33 38 39 38 17 31 33 32 32 20 40 35 33
Wind_Direction_850mb
179 182 177 175 180 203 265 304 310 313 312 311 315 319 320 324 329 333 323 316 309 305 259 276 292 309 323 347 331 346 344 359 4 6 352 333 323 324 324 325 323 324 327
184 191 199 199 212 231 273 299 304 309 313 315 316 317 319 322 322 321 322 337 342 327 273 247 240 242 297 317 329 13 355 353 345 343 337 324 334 340 348 347 341 331 326
199 214 210 207 224 232 256 291 309 310 310 312 315 317 321 320 325 330 331 335 344 335 296 265 257 255 254 269 292 300 316 318 321 322 326 301 319 322 329 332 339 336 335
216 225 217 219 223 238 261 277 289 302 310 312 316 321 321 325 332 332 332 339 341 336 276 267 273 273 275 279 282 291 305 308 307 308 309 301 308 312 318 322 328 331 330
231 220 219 212 220 240 245 267 301 313 316 319 323 323 322 317 315 320 320 311 328 301 299 308 291 280 283 288 291 291 304 305 306 306 300 305 306 303 311 314 319 321 321
223 222 218 214 223 233 245 274 294 313 323 320 329 327 319 307 304 305 296 293 313 310 314 312 299 298 300 305 305 303 314 312 308 303 297 295 296 297 301 306 310 310 311
226 222 217 221 225 237 250 270 303 326 330 341 335 322 311 294 286 284 283 293 308 314 317 310 315 312 309 308 305 305 313 314 311 307 303 300 298 297 297 299 301 301 302
223 220 220 225 232 244 257 276 291 333 340 334 329 321 278 291 271 275 280 280 300 313 305 311 314 309 309 307 306 309 312 315 316 310 301 296 295 291 290 293 294 296 298
220 223 225 230 240 247 263 282 286 317 330 329 318 305 287 275 288 285 269 288 293 304 297 307 312 303 305 308 307 304 304 309 313 311 306 300 295 292 289 289 291 292 293
223 224 230 235 243 253 264 261 288 328 333 333 315 292 288 282 282 288 293 272 299 296 295 303 302 294 299 304 306 304 303 306 311 309 305 304 299 294 289 288 289 291 291
226 230 234 238 242 248 244 253 315 317 323 316 294 289 282 283 285 280 292 292 299 295 297 305 300 294 297 302 304 301 305 308 307 305 302 298 296 292 288 287 286 286 286
232 232 234 238 243 243 245 288 296 319 322 304 288 286 286 279 279 280 287 292 290 290 299 301 303 299 294 300 301 302 304 303 302 300 297 293 292 290 288 286 284 283 284
244 238 240 242 245 247 272 281 298 314 298 282 284 289 292 293 287 291 280 286 288 293 298 296 298 298 296 300 300 303 305 304 304 302 299 297 294 292 292 290 289 286 284
252 247 242 240 236 252 276 279 313 298 274 290 284 285 286 285 286 281 269 283 290 294 295 293 288 303 302 304 297 305 306 306 306 305 302 299 297 295 295 293 290 287 283
249 246 239 233 233 276 265 278 295 268 301 286 273 267 279 270 269 269 272 280 277 294 298 301 289 293 304 302 305 306 306 307 307 306 304 302 299 296 294 292 287 282 281
245 243 235 231 270 244 257 280 253 296 301 272 255 262 276 263 259 265 273 274 278 284 291 300 292 292 304 306 306 306 307 307 307 306 305 303 299 295 291 288 283 284 283
244 242 233 254 244 236 258 243 265 305 277 251 248 260 270 274 274 276 277 278 284 287 285 296 292 295 307 305 306 308 310 309 309 308 307 303 295 288 287 289 290 289 283
247 236 238 239 229 248 236 246 298 282 264 247 249 253 270 281 291 285 281 277 283 282 285 289 294 294 299 305 310 311 312 311 309 309 310 301 297 298 297 295 294 292 287
235 226 231 228 240 230 234 252 293 256 261 258 258 264 273 273 277 289 275 276 280 280 283 285 292 291 299 306 309 311 312 312 312 316 315 299 293 296 295 295 296 297 298
231 225 222 223 216 212 227 280 302 268 259 264 269 272 274 272 273 278 271 280 280 276 280 283 287 291 295 302 308 312 312 313 312 316 305 304 302 298 297 301 303 298 297
230 222 219 224 213 219 227 280 286 271 272 270 270 271 271 271 271 273 267 283 278 274 276 278 283 286 295 300 304 306 308 313 318 315 308 308 306 302 302 311 315 310 297
220 219 213 215 231 231 253 286 273 274 279 278 277 273 274 269 262 265 265 284 277 276 278 274 275 279 291 297 301 305 310 314 316 318 311 309 308 300 300 308 317 306 302
222 215 214 224 233 249 274 278 272 275 282 281 278 276 274 269 262 257 264 283 275 277 279 276 274 278 287 297 295 303 306 307 307 309 310 307 311 299 302 309 322 311 295
219 223 236 254 261 265 281 286 279 282 283 283 280 277 272 268 259 254 260 277 273 278 283 278 276 285 289 291 294 296 303 306 306 308 307 301 307 305 307 316 328 325 290
249 257 259 261 272 277 290 287 291 289 289 287 283 277 267 262 255 251 259 271 271 278 283 275 275 281 284 284 292 292 300 306 308 312 314 306 310 312 311 316 320 319 311
262 265 275 283 286 284 291 296 293 292 294 295 288 279 267 258 254 254 262 267 264 275 280 273 272 278 278 281 284 284 291 297 302 314 302 318 312 325 318 315 322 323 319